User: anonymous   Login
Location: Norwich
(52.6280°N, 1.3030°E)
Time: 11:12:42
(UTC+01:00)
Language:

Meteor 1-22 Rocket - Orbit

View from above orbital plane
View from above orbital plane
View from above satellite
View from above satellite

Ground track
Ground track

The orbit data is extracted from the following two-line orbital elements,

1 08294U 75087B   14296.80506137  .00000196  00000-0  10224-3 0  1037
2 08294 081.2183 245.4258 0105600 250.1318 169.9258 14.08499798  8670
Epoch (UTC): 23 October 2014 19:19:17
Eccentricity: 0.0105600
inclination: 81.2183°
perigee height: 788 km
apogee height: 941 km
right ascension of ascending node: 245.4258°
argument of perigee: 250.1318°
revolutions per day: 14.08499798
mean anomaly at epoch: 169.9258°
orbit number at epoch: 867

The dashed part of the orbit path shows where the satellite is in the earth's shadow,  

DLR